KC4KQE Weather Reports


time (UTC)temp
F
wind
direction
speed
knots
gust
knots
rain 1hr
in
rain 24hr
in
rain mn
in
humidity
%
barometer
mb
20260504160416 75 110 6.1 10.4 0.00 0.00 0.00 38 1013.5
20260504150916 73 110 7.8 8.7 0.00 0.00 0.00 41 1013.0
20260504150415 73 110 4.3 10.4 0.00 0.00 0.00 41 1012.9
20260504140915 72 110 1.7 6.1 0.00 0.00 0.00 41 1012.7
20260504140415 72 110 3.5 6.1 0.00 0.00 0.00 41 1012.7
20260504130417 71 110 0.0 3.5 0.00 0.00 0.00 41 1012.1
20260504110415 71 110 0.9 2.6 0.00 0.00 0.00 41 1011.9
20260504100417 73 110 3.5 7.0 0.00 0.00 0.00 40 1012.3
20260504081915 72 110 0.0 1.7 0.00 0.00 0.00 38 1011.7
20260504081416 73 110 0.0 0.9 0.00 0.00 0.00 38 1011.7
20260504080916 73 110 0.0 1.7 0.00 0.00 0.00 38 1011.8
20260504080415 73 110 0.0 0.0 0.00 0.00 0.00 38 1011.8
20260504050416 78 110 7.0 9.6 0.00 0.00 0.00 23 1011.9
20260504045915 79 110 2.6 7.8 0.00 0.00 0.00 23 1011.8
20260504045415 79 110 3.5 7.8 0.00 0.00 0.00 23 1011.7
20260504044916 79 110 1.7 9.6 0.00 0.00 0.00 23 1011.8
20260504044415 79 110 4.3 9.6 0.00 0.00 0.00 22 1011.8
20260504043915 79 110 6.1 7.8 0.00 0.00 0.00 22 1011.6
20260504043415 80 110 6.1 11.3 0.00 0.00 0.00 22 1011.4
20260504042915 80 110 0.9 10.4 0.00 0.00 0.00 21 1011.5
20260504042416 80 110 4.3 13.0 0.00 0.00 0.00 21 1011.3
20260504041916 80 110 7.0 15.6 0.00 0.00 0.00 21 1011.2
20260504041416 81 110 7.0 8.7 0.00 0.00 0.00 20 1011.2
20260504040915 81 110 4.3 13.0 0.00 0.00 0.00 20 1011.1
20260504040415 81 110 3.5 8.7 0.00 0.00 0.00 19 1011.0
20260504035916 81 110 3.5 13.0 0.00 0.00 0.00 19 1010.8
20260504035416 81 110 4.3 10.4 0.00 0.00 0.00 19 1010.7
20260504034915 82 110 3.5 13.0 0.00 0.00 0.00 18 1010.4
20260504034415 82 110 13.0 13.0 0.00 0.00 0.00 18 1010.3
20260504033915 82 110 9.6 14.8 0.00 0.00 0.00 18 1010.2
20260504033415 82 110 8.7 11.3 0.00 0.00 0.00 18 1010.2
20260504032915 83 110 3.5 13.0 0.00 0.00 0.00 18 1010.0
20260504032415 83 110 8.7 16.5 0.00 0.00 0.00 18 1009.9
20260504031915 83 110 7.0 11.3 0.00 0.00 0.00 18 1009.8
20260504031415 83 110 7.8 12.2 0.00 0.00 0.00 18 1009.7
20260504030915 83 110 4.3 12.2 0.00 0.00 0.00 17 1009.7
20260504030416 84 110 9.6 15.6 0.00 0.00 0.00 17 1009.6
20260504025916 84 110 4.3 12.2 0.00 0.00 0.00 17 1009.4
20260504025415 84 110 4.3 11.3 0.00 0.00 0.00 17 1009.2
20260504024915 84 110 3.5 7.8 0.00 0.00 0.00 16 1009.0
20260504024416 85 110 6.1 9.6 0.00 0.00 0.00 16 1009.0
20260504023915 85 110 7.0 12.2 0.00 0.00 0.00 16 1008.9
20260504023421 85 110 11.3 13.0 0.00 0.00 0.00 16 1008.7
20260504022916 85 110 4.3 10.4 0.00 0.00 0.00 15 1008.7
20260504022416 86 110 6.1 7.8 0.00 0.00 0.00 15 1008.6
20260504021917 86 110 8.7 14.8 0.00 0.00 0.00 14 1008.6
20260504021417 87 110 9.6 15.6 0.00 0.00 0.00 14 1008.5
20260504020915 87 110 6.1 13.9 0.00 0.00 0.00 14 1008.2
20260504020416 87 110 7.8 18.2 0.00 0.00 0.00 14 1008.2
20260504015915 88 110 8.7 18.2 0.00 0.00 0.00 13 1008.0
20260504015415 88 110 7.8 16.5 0.00 0.00 0.00 13 1008.0
20260504014916 89 110 6.1 11.3 0.00 0.00 0.00 12 1007.9
20260504014416 89 110 7.8 15.6 0.00 0.00 0.00 12 1007.7
20260504013915 89 110 4.3 16.5 0.00 0.00 0.00 12 1007.8
20260504013415 89 110 7.8 15.6 0.00 0.00 0.00 12 1007.8
20260504012915 90 110 14.8 14.8 0.00 0.00 0.00 12 1007.8
20260504012415 90 110 3.5 20.0 0.00 0.00 0.00 12 1007.8
20260504011915 91 110 9.6 15.6 0.00 0.00 0.00 12 1007.8
20260504011415 91 110 7.8 14.8 0.00 0.00 0.00 12 1007.7
20260504010915 92 110 7.8 16.5 0.00 0.00 0.00 12 1007.8
20260504010416 92 110 6.1 15.6 0.00 0.00 0.00 11 1007.8
20260504005915 93 110 3.5 15.6 0.00 0.00 0.00 11 1007.8
20260504005415 93 110 4.3 13.0 0.00 0.00 0.00 11 1007.8
20260504004915 93 110 7.0 13.9 0.00 0.00 0.00 11 1007.7
20260504004415 93 110 7.0 12.2 0.00 0.00 0.00 14 1007.8
20260504003916 93 110 6.1 12.2 0.00 0.00 0.00 14 1007.8
20260504003416 93 110 4.3 12.2 0.00 0.00 0.00 14 1007.7
20260504002915 93 110 7.0 11.3 0.00 0.00 0.00 13 1007.7
20260504002415 93 110 7.0 13.9 0.00 0.00 0.00 13 1007.8
20260504001916 93 110 10.4 11.3 0.00 0.00 0.00 13 1007.8
20260504001415 93 110 7.8 11.3 0.00 0.00 0.00 13 1007.8
20260504000915 93 110 1.7 13.0 0.00 0.00 0.00 13 1007.9
20260504000416 93 110 8.7 14.8 0.00 0.00 0.00 13 1007.9
20260503235916 93 110 7.8 12.2 0.00 0.00 0.00 14 1007.9
20260503235415 93 110 3.5 9.6 0.00 0.00 0.00 13 1007.9
20260503234915 93 110 8.7 10.4 0.00 0.00 0.00 14 1008.0
20260503234417 93 110 2.6 7.8 0.00 0.00 0.00 14 1008.1
20260503233915 92 110 2.6 7.8 0.00 0.00 0.00 14 1008.0
20260503233416 92 110 2.6 11.3 0.00 0.00 0.00 14 1008.2
20260503232915 92 110 8.7 11.3 0.00 0.00 0.00 14 1008.3
20260503232417 93 110 8.7 12.2 0.00 0.00 0.00 13 1008.3
20260503231915 93 110 7.8 12.2 0.00 0.00 0.00 13 1008.3
20260503231415 93 110 6.1 14.8 0.00 0.00 0.00 14 1008.4
20260503230915 94 110 9.6 12.2 0.00 0.00 0.00 13 1008.4
20260503230415 94 110 3.5 8.7 0.00 0.00 0.00 13 1008.4
20260503225916 92 110 3.5 11.3 0.00 0.00 0.00 14 1008.6
20260503225416 93 110 6.1 12.2 0.00 0.00 0.00 13 1008.6
20260503224915 93 110 4.3 12.2 0.00 0.00 0.00 14 1008.9
20260503224415 93 110 7.0 9.6 0.00 0.00 0.00 14 1008.9
20260503223916 93 110 7.0 15.6 0.00 0.00 0.00 14 1008.9
20260503223416 93 110 1.7 11.3 0.00 0.00 0.00 14 1008.9
20260503222915 93 110 4.3 14.8 0.00 0.00 0.00 14 1009.0
20260503222415 94 110 11.3 11.3 0.00 0.00 0.00 14 1009.2
20260503221915 88 110 7.0 8.7 0.00 0.00 0.00 19 1009.1
20260503221415 88 110 8.7 13.9 0.00 0.00 0.00 19 1009.3
20260503220915 88 110 4.3 10.4 0.00 0.00 0.00 19 1009.4
20260503220415 88 110 3.5 13.9 0.00 0.00 0.00 19 1009.5
20260503215915 88 110 8.7 18.2 0.00 0.00 0.00 19 1009.4
20260503215415 88 110 7.0 13.0 0.00 0.00 0.00 19 1009.4
20260503214916 88 110 9.6 16.5 0.00 0.00 0.00 19 1009.6
20260503214417 88 110 8.7 12.2 0.00 0.00 0.00 19 1009.7
20260503213916 88 110 2.6 13.0 0.00 0.00 0.00 19 1009.9
20260503213415 88 110 8.7 18.2 0.00 0.00 0.00 19 1009.9
20260503212916 88 110 9.6 15.6 0.00 0.00 0.00 19 1010.0
20260503212416 88 110 0.9 10.4 0.00 0.00 0.00 19 1010.0
20260503211915 88 110 7.0 15.6 0.00 0.00 0.00 19 1010.2
20260503211417 88 110 7.8 10.4 0.00 0.00 0.00 19 1010.2
20260503210915 88 110 2.6 13.9 0.00 0.00 0.00 19 1010.2
20260503210415 88 110 8.7 21.7 0.00 0.00 0.00 19 1010.3
20260503205916 88 110 6.1 18.2 0.00 0.00 0.00 19 1010.4
20260503205416 88 110 6.1 18.2 0.00 0.00 0.00 19 1010.3
20260503204915 88 110 7.8 20.9 0.00 0.00 0.00 19 1010.1
20260503204607 88 110 8.7 16.5 0.00 0.00 0.00 19 1010.3
20260503203917 88 110 1.7 11.3 0.00 0.00 0.00 19 1010.3
20260503203418 88 110 2.6 9.6 0.00 0.00 0.00 19 1010.4
20260503202917 88 110 3.5 21.7 0.00 0.00 0.00 19 1010.6
20260503202417 88 110 9.6 14.8 0.00 0.00 0.00 19 1010.6
20260503201917 88 110 4.3 11.3 0.00 0.00 0.00 19 1010.7
20260503201418 88 110 4.3 12.2 0.00 0.00 0.00 19 1010.8
20260503200917 88 110 6.1 10.4 0.00 0.00 0.00 19 1010.8
20260503200417 88 110 0.9 13.0 0.00 0.00 0.00 19 1010.9
20260503195918 88 110 7.8 15.6 0.00 0.00 0.00 19 1010.9
20260503195418 88 110 3.5 15.6 0.00 0.00 0.00 19 1011.0
20260503194917 88 110 4.3 10.4 0.00 0.00 0.00 19 1011.1
20260503194417 88 110 10.4 10.4 0.00 0.00 0.00 19 1011.2
20260503193917 88 110 4.3 8.7 0.00 0.00 0.00 19 1011.3
20260503193417 88 110 2.6 9.6 0.00 0.00 0.00 19 1011.4
20260503192917 88 110 3.5 13.0 0.00 0.00 0.00 19 1011.5
20260503192417 88 110 6.1 12.2 0.00 0.00 0.00 19 1011.5
20260503191918 88 110 4.3 12.2 0.00 0.00 0.00 19 1011.5
20260503191417 88 110 6.1 11.3 0.00 0.00 0.00 19 1011.6
20260503190917 88 110 4.3 11.3 0.00 0.00 0.00 19 1011.6
20260503190418 88 110 7.0 12.2 0.00 0.00 0.00 19 1011.7
20260503185917 88 110 4.3 7.8 0.00 0.00 0.00 19 1011.8
20260503185417 88 110 6.1 13.9 0.00 0.00 0.00 19 1011.9
20260503184917 88 110 7.8 11.3 0.00 0.00 0.00 19 1012.0
20260503184417 88 110 2.6 11.3 0.00 0.00 0.00 19 1012.0
20260503183917 88 110 2.6 10.4 0.00 0.00 0.00 19 1012.0
20260503183417 88 110 3.5 9.6 0.00 0.00 0.00 19 1012.1
20260503182917 88 110 3.5 8.7 0.00 0.00 0.00 19 1012.2
20260503182419 88 110 8.7 11.3 0.00 0.00 0.00 19 1012.3
20260503181917 88 110 2.6 8.7 0.00 0.00 0.00 19 1012.2
20260503181417 88 110 7.0 9.6 0.00 0.00 0.00 19 1012.3
20260503180917 88 110 7.0 13.0 0.00 0.00 0.00 19 1012.6
20260503180417 88 110 3.5 9.6 0.00 0.00 0.00 19 1012.6
20260503175917 88 110 2.6 19.1 0.00 0.00 0.00 19 1012.5
20260503175417 88 110 3.5 9.6 0.00 0.00 0.00 19 1012.5
20260503174917 88 110 6.1 10.4 0.00 0.00 0.00 20 1012.6
20260503174417 88 110 7.0 11.3 0.00 0.00 0.00 20 1012.6
20260503173917 88 110 1.7 11.3 0.00 0.00 0.00 19 1012.6
20260503173417 87 110 8.7 12.2 0.00 0.00 0.00 20 1012.7
20260503172917 86 110 8.7 13.0 0.00 0.00 0.00 21 1012.7
20260503172417 86 110 7.0 8.7 0.00 0.00 0.00 22 1012.8
20260503171917 86 110 7.0 13.9 0.00 0.00 0.00 22 1012.7
20260503171417 86 110 7.0 13.9 0.00 0.00 0.00 23 1012.8
20260503170917 86 110 7.0 14.8 0.00 0.00 0.00 23 1012.9
20260503170418 85 110 3.5 12.2 0.00 0.00 0.00 23 1012.8